STARLINK-31814, 59802

Orbit data source: Space-Track

STARLINK-31814, 59802 is a payload satellite owned by SpaceX/Seattle (US) in LEO that was launched on Sat, 18 May 2024 UTC via an FALCON 9 launch vehicle from the Air Force Eastern Test Range (AFETR). Payload-class satellites include a variety of spacecraft equipped with specific instruments for various scientific and technological missions. These include communications satellites like Starlink; space stations such as the ISS; scientific satellites like the Hubble; Earth observation satellites from companies like Planet Labs, Umbra, and HawkEye 360; GPS; miniature CubeSats for education and research; and military/defense satellites.

Loading next visibility...
Identifier
59802, 2024-093W
Orbit
LEO
Country
Flag of USUS
Related business
Manufacturer
SpaceX/Seattle
Mission
Operational Commercial Communications
Bus & Motor
STARLINK V2M, Unknown motor
Mass
730 kg wet, ~700 kg dry
Launch date (UTC)
2024-05-18 (2 years ago)
Launch vehicle
FALCON 9
Launch site
Air Force Eastern Test Range (AFETR)
Object type
Payload
Rocket body
Debris
Shape & HBR
Box + 2 Pan, 17.7 m
Radar Cross Section
33.884 m², Large (>1 m²)

Expand to show TLE details & history
Last TLE update: 3 days ago

TLE from 3 days ago
0 STARLINK-31814
1 59802U 24093W   26170.58262321  .00000673  00000-0  33973-4 0  9992
2 59802  42.9997 353.8656 0001273 251.3814 108.6899 15.27580656118274
Epoch: 2026-06-19T13:58Z
TLE epoch observation values (Epoch: 2026-06-19T13:58:58.645Z)
Latitude
-0.00004°
Longitude
-123.68832°
Altitude
483.102 km
Speed
7.626 km/s
True Right ascension
23h 35m 27s
True Declination
0° 00' 00"
Sunlit
Object was in daylight at epoch
Visualization orbit readout
Latitude
Unknown
Longitude
Unknown
Altitude
Unknown
Speed
Unknown
Apparent Right ascension
Unknown
Apparent Declination
Unknown
Sunlit
N/A
Visualization observer readout
Local Sidereal Time
21:35:36
Azimuth
Unknown
Elevation
Unknown
Doppler factor
Unknown
Orbital elements
Apogee altitude
485.866 km
Perigee altitude
484.119 km
Semi-major axis
6,863.129 km
Eccentricity
0.00013
Inclination
42.9997°
RAAN
353.8656°
Arg. of periapsis
251.3814°
True anomaly
108.70372°
Mean anomaly
108.6899°
Eccentric anomaly
108.69681°
Mean motion
3.81733 °/min
Orbital period
94.31 mins
BSTAR
0.000033973
Loading maneuver chart data...
Computing Atmospheric mass density...
Loading historical data...
Loading historical data...
Loading historical data...
Loading historical data...
Loading historical data...
Loading historical data...
Loading historical data...

Documentation

Showing up to 5 results
|